Theta_e
297 293 290 293 294 295 293 290 290 291 297 291 290 289 292 294 292 293 293 292 294 307 314 315 316 317 316 315 313 308 305 304 304 302 299 297 295 295 295 296 297 298 297 297
293 290 295 297 297 295 294 291 291 293 295 290 288 288 291 293 293 292 292 292 291 290 294 310 315 316 314 312 311 307 305 303 305 305 302 299 296 295 295 295 295 296 296 296
291 293 298 296 294 293 292 291 290 290 289 287 287 287 287 292 291 293 293 292 295 297 297 300 310 313 311 311 308 307 304 304 304 302 299 297 295 294 293 292 293 295 296 296
291 295 295 292 292 293 288 294 293 290 284 281 285 281 286 289 290 290 291 293 298 299 301 300 304 305 306 307 306 306 305 304 304 303 301 298 296 294 293 292 292 293 295 294
290 292 291 290 291 294 289 292 289 287 283 280 282 279 281 285 286 288 293 297 298 297 299 300 302 302 303 304 304 306 307 306 304 303 301 298 296 295 293 292 293 294 293 293
291 294 292 292 294 293 292 289 287 284 283 278 283 282 281 283 288 292 294 297 297 298 298 301 303 305 305 307 307 306 305 305 305 303 301 299 296 294 293 292 292 291 290 290
288 289 291 293 289 291 288 284 278 277 276 278 283 280 284 287 293 294 295 297 297 297 297 299 301 303 303 305 305 306 307 306 304 302 300 299 298 296 294 292 292 290 289 288
281 281 289 293 291 287 286 286 281 276 276 278 283 279 283 292 294 296 296 297 297 296 298 298 300 301 304 305 306 307 308 306 306 303 300 300 298 297 295 293 293 291 290 288
281 282 290 291 291 290 287 284 288 283 280 278 279 282 289 291 292 295 295 296 295 296 297 299 301 303 304 306 308 308 307 307 307 304 301 299 297 296 294 293 292 292 290 289
285 280 287 290 290 289 287 289 281 282 276 275 278 278 280 287 288 292 293 294 295 297 299 300 300 302 305 308 309 309 308 306 305 302 301 299 297 296 295 293 292 291 290 289
285 282 282 286 284 283 284 283 285 284 281 277 275 278 286 289 291 290 292 294 294 294 296 299 300 301 302 303 304 305 305 304 302 302 300 297 297 296 294 293 292 291 291 289
288 283 278 281 287 288 285 284 285 278 278 280 279 279 290 290 290 289 289 293 294 296 296 296 299 300 299 300 301 302 301 302 301 301 300 296 295 294 292 292 292 291 290 289
288 282 277 279 282 285 283 284 284 284 282 277 275 277 289 290 290 291 291 292 295 295 296 295 295 297 300 296 296 299 299 301 300 298 297 296 295 293 292 292 291 290 289 288
293 284 281 277 280 283 281 283 285 283 278 279 279 281 285 287 288 290 291 292 293 293 295 295 295 292 292 296 296 297 297 297 298 298 296 294 293 293 291 291 290 290 289 287
289 281 284 285 286 285 284 283 284 282 282 278 281 282 285 288 289 289 290 292 293 293 294 294 295 294 294 293 293 295 297 296 297 296 296 294 295 292 290 289 289 289 289 288
289 282 283 281 284 284 282 284 284 284 284 283 284 283 290 291 291 289 291 292 292 292 292 293 294 294 294 294 294 294 295 296 296 296 295 295 293 291 289 288 289 288 287 287
286 284 282 277 282 282 277 282 284 285 286 284 280 284 287 286 287 289 291 292 292 291 291 292 293 294 295 295 294 295 295 295 295 296 296 294 293 290 289 289 289 288 287 287
285 284 283 278 281 272 281 286 286 284 285 285 285 286 287 287 288 291 294 293 292 291 292 292 293 294 295 295 295 295 295 293 294 295 294 293 292 291 290 289 289 288 287 286
289 285 280 277 276 280 282 283 284 282 282 286 285 288 290 291 290 288 294 293 292 292 292 293 294 295 296 295 295 295 293 293 293 294 294 293 292 291 290 289 287 286 285 285
287 287 282 279 275 272 280 286 289 289 278 288 289 289 289 288 281 284 290 291 292 293 293 293 293 294 294 294 294 292 291 291 291 291 292 292 293 291 289 289 287 286 285 284
279 280 278 278 276 279 284 286 289 275 278 288 290 290 290 287 288 289 290 291 292 293 293 294 295 294 293 292 291 286 284 287 286 290 293 292 292 290 290 288 287 286 285 284
277 274 275 278 275 273 287 285 279 284 287 288 289 291 291 292 293 293 292 291 291 292 293 294 294 293 292 292 289 284 284 282 285 287 289 290 290 290 289 287 286 286 285 284
276 279 275 278 274 285 288 286 289 289 288 289 291 292 292 291 290 290 289 290 291 292 293 294 293 292 292 291 291 284 284 283 284 286 287 287 287 288 288 286 285 284 285 284
281 286 280 280 281 284 287 288 288 290 290 292 293 293 294 290 291 291 289 289 291 292 292 293 292 292 293 292 291 290 289 286 286 285 286 287 286 285 286 286 286 285 284 283
278 280 279 279 281 284 286 286 287 288 289 290 293 291 291 291 290 291 289 289 291 291 292 292 292 291 292 294 292 290 289 287 286 287 288 287 286 285 285 286 285 285 285 285
280 279 277 275 281 282 282 285 287 286 287 289 289 288 289 289 290 291 288 288 290 290 291 291 291 291 292 291 290 290 290 288 286 287 287 287 285 285 285 285 284 286 285 286
Wind_Speed
2 1 7 8 6 2 1 1 7 5 12 4 9 7 12 12 5 9 8 7 7 9 11 11 15 15 11 11 13 13 12 11 11 8 6 3 4 3 2 2 4 4 5 6
4 6 8 3 5 5 4 6 10 8 9 5 9 11 11 12 10 6 6 8 7 6 8 9 15 16 16 17 16 15 14 14 9 8 4 4 4 3 4 2 4 4 5 5
6 4 2 5 4 5 5 5 5 9 4 4 6 9 6 7 4 7 7 4 7 7 10 10 9 11 6 10 12 13 13 14 12 8 7 6 6 4 2 1 2 2 4 4
5 4 4 2 5 8 3 6 8 5 1 4 2 14 5 6 9 6 7 8 7 12 10 6 4 5 6 5 7 10 12 11 8 10 6 11 6 5 3 3 0 2 4 4
7 2 2 4 5 4 8 1 3 3 4 1 2 3 1 1 6 6 10 13 11 6 7 8 8 9 9 9 8 7 9 7 9 8 8 6 6 3 3 2 5 2 4 5
8 3 4 7 6 6 3 2 3 4 3 7 9 9 5 1 2 6 6 7 9 10 9 10 9 11 11 11 9 9 11 10 9 6 6 3 10 8 6 2 4 2 3 3
4 6 5 4 3 0 4 5 4 5 1 9 3 2 9 1 1 3 7 7 5 5 5 5 7 9 8 10 11 10 10 5 6 6 7 8 9 11 13 10 7 6 4 2
4 7 3 1 3 4 4 6 5 6 4 5 3 7 6 2 3 3 2 1 2 2 1 3 5 6 8 10 11 10 8 10 10 13 13 10 11 8 8 9 7 5 4 4
2 5 5 3 2 1 1 2 3 2 0 3 4 6 2 3 5 4 4 3 3 4 4 6 7 8 11 17 16 16 15 15 14 15 12 15 16 12 9 9 8 6 6 6
1 6 3 5 2 3 3 3 1 2 4 10 6 7 6 4 2 3 6 5 2 3 4 6 7 8 12 15 17 14 11 15 15 13 12 12 10 9 11 10 11 10 8 8
3 4 5 3 1 3 4 2 1 2 4 5 9 10 3 4 2 1 4 7 7 6 6 8 9 8 7 8 7 11 10 12 11 13 12 9 7 8 5 8 11 12 11 10
1 2 4 8 6 2 1 3 3 3 7 2 2 17 4 5 6 7 9 10 8 8 10 8 9 9 9 13 8 7 8 11 14 12 9 11 10 11 11 10 9 11 13 11
3 1 5 7 3 5 5 1 2 2 1 3 4 9 7 18 21 22 20 13 11 14 10 8 7 8 7 5 6 7 7 11 6 8 10 11 12 12 12 11 11 10 10 8
6 4 6 11 8 8 18 17 13 12 9 14 21 21 21 17 20 22 18 16 14 7 5 7 8 6 6 6 6 9 9 6 6 8 10 12 14 13 12 11 11 11 12 9
5 6 10 15 16 13 20 17 12 16 17 18 21 22 20 22 20 14 13 9 7 4 5 6 6 7 7 7 7 6 6 6 7 9 9 8 8 9 9 10 10 11 12 13
3 7 5 18 9 12 24 16 12 17 19 18 18 22 24 20 15 9 10 7 6 7 6 6 7 7 8 6 6 6 6 7 8 10 11 10 10 10 12 10 11 12 10 11
5 4 2 18 4 8 17 11 14 12 14 8 13 20 13 8 10 11 9 7 7 7 7 7 7 8 8 8 6 7 6 6 9 10 10 11 11 11 10 10 12 13 13 12
6 7 5 12 4 15 4 3 6 8 11 12 8 14 14 12 7 7 4 6 8 7 8 8 7 7 8 7 7 7 5 5 7 8 9 10 11 12 11 11 11 10 9 11
14 8 5 6 10 14 15 2 3 1 9 4 8 6 5 5 3 5 7 8 9 8 7 7 7 9 9 7 7 6 5 5 4 7 8 9 11 11 12 13 12 11 10 8
9 10 7 4 5 11 2 4 6 5 10 8 6 6 6 5 3 6 4 3 7 8 7 6 8 8 8 7 4 4 4 5 6 5 6 8 10 11 12 12 13 11 10 10
4 4 13 12 12 7 1 7 4 2 5 15 11 13 8 6 5 7 7 6 6 7 7 6 6 7 7 3 4 3 3 6 4 5 6 7 9 10 11 12 9 11 11 10
4 4 5 6 8 9 3 1 2 5 3 7 15 14 16 13 13 12 12 10 8 8 5 5 5 6 5 1 4 3 3 3 5 5 6 7 8 8 9 12 10 10 11 11
4 4 2 3 5 4 1 6 7 5 9 11 11 12 15 14 11 9 8 7 8 7 6 3 3 5 5 2 3 3 4 4 5 6 7 7 7 8 10 11 11 9 9 8
4 5 3 4 5 6 10 10 12 10 12 13 9 13 12 15 19 14 10 8 7 6 6 4 3 4 5 4 1 2 2 4 6 6 7 8 9 8 8 7 8 8 8 8
5 3 3 12 15 13 15 10 8 12 10 12 10 10 12 13 18 14 11 8 7 6 4 3 5 5 3 3 2 2 2 3 4 5 6 7 7 9 8 7 9 9 9 10
5 15 8 15 14 10 15 11 12 10 17 15 14 18 19 12 13 14 8 6 5 5 1 3 4 5 6 3 3 4 4 5 5 4 5 6 7 7 7 7 5 5 7 12
Wind_Direction
334 76 228 219 201 224 346 274 258 271 274 268 260 266 280 296 283 274 257 274 274 242 254 206 210 209 196 181 173 174 155 156 147 144 143 133 138 118 89 106 116 124 125 132
18 237 236 194 195 227 255 268 275 269 271 189 276 274 272 279 274 272 303 318 305 305 293 239 214 202 192 183 175 172 166 156 164 159 138 134 123 90 105 76 102 130 134 139
187 256 16 190 226 180 225 210 244 236 327 310 321 270 257 285 263 300 317 342 329 308 297 267 235 217 194 188 175 166 156 158 155 142 115 95 77 62 71 59 103 131 132 130
232 258 245 285 264 151 230 208 231 260 66 250 14 292 189 243 291 312 325 339 333 349 328 280 200 157 163 153 133 150 149 143 129 137 136 156 146 150 168 142 153 109 120 115
256 268 269 254 230 169 229 153 207 218 214 79 217 297 73 255 267 293 324 351 359 4 7 31 51 62 59 63 76 106 122 119 132 133 150 138 94 64 84 92 125 154 116 113
244 266 223 214 234 195 230 281 54 59 96 271 200 183 318 127 327 313 326 7 353 353 23 58 72 90 93 95 94 97 97 91 69 61 112 136 148 139 136 172 142 200 76 93
329 261 264 182 229 98 92 79 319 313 152 245 96 229 259 226 316 286 311 353 360 6 32 52 97 113 116 115 116 104 89 111 157 163 199 177 191 168 173 177 170 160 143 165
240 319 232 173 202 188 162 157 179 257 228 261 322 249 247 76 27 21 47 88 24 20 46 144 147 135 125 120 125 137 155 157 207 198 199 200 201 191 174 173 158 167 164 150
296 269 320 354 0 53 128 206 180 247 269 315 218 291 354 58 14 18 52 58 6 317 266 203 189 180 169 159 174 189 185 196 218 214 195 199 184 178 179 173 158 163 146 160
162 301 287 306 344 22 174 180 267 5 272 265 267 265 214 191 228 325 12 11 352 206 231 270 255 231 206 197 194 199 193 196 204 201 195 199 202 189 165 163 172 162 154 153
69 147 289 359 264 240 323 266 171 212 169 248 278 265 187 89 291 83 299 312 316 324 262 224 224 235 262 279 218 209 200 197 198 202 198 176 192 178 189 185 173 164 158 162
257 156 248 229 259 303 243 283 183 189 281 268 256 267 46 65 356 308 274 274 266 241 259 266 230 226 222 227 232 237 206 202 204 199 183 171 169 173 172 174 182 173 174 153
39 300 326 306 30 15 76 43 88 308 273 230 250 278 312 318 308 296 296 293 241 245 237 262 267 255 252 227 234 245 226 224 198 162 169 171 177 177 176 175 166 167 151 152
160 209 200 260 255 290 279 270 274 274 261 275 259 276 281 286 276 283 281 280 269 259 292 299 314 335 292 274 247 230 231 215 180 175 188 183 177 181 176 168 169 156 144 147
187 232 256 265 269 265 272 271 273 254 253 245 267 266 273 269 275 268 268 264 249 253 266 276 294 309 315 306 297 275 256 204 180 180 188 189 173 158 152 155 162 147 156 152
193 252 252 272 264 267 276 282 265 251 254 255 263 267 264 276 280 263 241 242 247 249 260 289 298 313 303 290 263 262 253 227 192 193 190 168 162 170 164 160 158 150 150 148
188 183 206 270 203 296 278 250 235 241 241 237 250 261 274 265 252 254 232 224 252 268 282 287 276 272 281 287 283 273 257 224 198 196 182 169 164 165 165 161 162 157 155 149
206 205 219 274 295 256 257 300 255 232 250 256 257 264 269 251 256 250 229 227 244 257 278 280 274 283 278 280 281 275 273 211 197 189 175 170 169 171 160 162 161 147 153 152
220 217 245 246 244 282 298 314 49 303 278 253 254 277 300 302 266 289 229 221 230 234 252 258 267 268 274 258 256 237 222 173 182 183 179 172 171 163 160 160 155 146 145 149
201 216 227 219 260 269 104 343 340 275 278 1 319 311 311 24 296 272 3 297 255 256 256 269 278 271 265 266 223 196 204 157 194 186 167 161 167 161 164 160 157 153 148 155
149 198 225 241 254 262 13 287 287 155 292 328 316 317 305 296 243 275 302 292 257 259 277 311 296 286 287 250 160 200 158 207 174 151 144 154 162 158 157 149 148 147 151 154
224 201 203 230 251 261 213 310 105 227 272 284 297 298 300 286 285 280 275 267 259 257 304 312 303 308 336 181 147 188 214 220 156 154 143 151 147 152 151 151 148 153 154 159
264 207 209 246 255 287 260 255 263 230 272 276 303 300 302 296 287 286 274 277 262 254 267 279 309 333 349 353 151 166 232 187 145 146 144 137 132 147 152 151 149 149 158 166
257 182 207 236 242 259 258 257 266 260 256 266 248 264 252 303 295 284 281 263 253 255 260 241 255 0 24 31 355 86 125 156 158 153 149 142 146 142 146 146 152 156 167 171
205 338 266 268 277 282 261 264 274 296 280 298 264 277 272 266 274 277 270 257 243 251 268 262 249 242 245 162 100 96 111 143 161 153 153 151 151 156 155 162 167 175 185 181
189 250 243 258 275 264 278 286 286 280 293 294 292 293 288 273 260 267 255 244 238 229 293 321 281 261 252 208 191 147 174 149 160 165 163 164 158 161 162 162 157 178 168 179